Time,TemperatureF,DewpointF,PressureIn,WindDirection,WindDirectionDegrees,WindSpeedMPH,WindSpeedGustMPH,Humidity,HourlyPrecipIn,Conditions,Clouds,dailyrainin,SoftwareType,DateUTC
2013-03-24 00:02:00,15.0,3.0,-100.00,West,280,4.0,4.0,59,-99.99,,,0.00,,2013-03-24 06:02:00,
2013-03-24 00:12:00,15.0,3.0,-100.00,West,280,4.0,4.0,59,-99.99,,,0.00,,2013-03-24 06:12:00,
2013-03-24 00:22:00,15.0,3.0,-100.00,West,280,4.0,4.0,59,-99.99,,,0.00,,2013-03-24 06:22:00,
2013-03-24 00:52:00,13.0,4.0,-100.00,WSW,255,1.0,1.0,66,-99.99,,,0.00,,2013-03-24 06:52:00,
2013-03-24 01:02:00,13.0,4.0,-100.00,WSW,255,1.0,1.0,66,-99.99,,,0.00,,2013-03-24 07:02:00,
2013-03-24 01:12:00,13.0,4.0,-100.00,WSW,255,1.0,1.0,66,-99.99,,,0.00,,2013-03-24 07:12:00,
2013-03-24 01:22:00,13.0,4.0,-100.00,WSW,255,1.0,1.0,66,-99.99,,,0.00,,2013-03-24 07:22:00,
2013-03-24 01:52:00,11.0,4.0,-100.00,WNW,300,4.0,4.0,72,-99.99,,,0.00,,2013-03-24 07:52:00,
2013-03-24 02:02:00,11.0,4.0,-100.00,WNW,300,4.0,4.0,72,-99.99,,,0.00,,2013-03-24 08:02:00,
2013-03-24 02:12:00,11.0,4.0,-100.00,WNW,300,4.0,4.0,72,-99.99,,,0.00,,2013-03-24 08:12:00,
2013-03-24 02:22:00,11.0,4.0,-100.00,WNW,300,4.0,4.0,72,-99.99,,,0.00,,2013-03-24 08:22:00,
2013-03-24 03:52:00,12.0,6.0,-100.00,NW,305,4.0,5.0,76,-99.99,,,0.00,,2013-03-24 09:52:00,
2013-03-24 04:02:00,12.0,6.0,-100.00,NW,305,4.0,5.0,76,-99.99,,,0.00,,2013-03-24 10:02:00,
2013-03-24 04:12:00,12.0,6.0,-100.00,NW,305,4.0,5.0,76,-99.99,,,0.00,,2013-03-24 10:12:00,
2013-03-24 04:22:00,12.0,6.0,-100.00,NW,305,4.0,5.0,76,-99.99,,,0.00,,2013-03-24 10:22:00,
2013-03-24 04:52:00,9.0,5.0,-100.00,West,260,6.0,6.0,81,-99.99,,,0.00,,2013-03-24 10:52:00,
2013-03-24 05:02:00,9.0,5.0,-100.00,West,260,6.0,6.0,81,-99.99,,,0.00,,2013-03-24 11:02:00,
2013-03-24 05:12:00,9.0,5.0,-100.00,West,260,6.0,6.0,81,-99.99,,,0.00,,2013-03-24 11:12:00,
2013-03-24 05:22:00,9.0,5.0,-100.00,West,260,6.0,6.0,81,-99.99,,,0.00,,2013-03-24 11:22:00,
2013-03-24 05:52:00,8.0,4.0,-100.00,WSW,250,3.0,3.0,84,-99.99,,,0.00,,2013-03-24 11:52:00,
2013-03-24 06:02:00,8.0,4.0,-100.00,WSW,250,3.0,3.0,84,-99.99,,,0.00,,2013-03-24 12:02:00,
2013-03-24 06:12:00,8.0,4.0,-100.00,WSW,250,3.0,3.0,84,-99.99,,,0.00,,2013-03-24 12:12:00,
2013-03-24 06:52:00,9.0,6.0,-100.00,North,-999,0.0,0.0,87,-99.99,,,0.00,,2013-03-24 12:52:00,
2013-03-24 07:02:00,9.0,6.0,-100.00,North,-999,0.0,0.0,87,-99.99,,,0.00,,2013-03-24 13:02:00,
2013-03-24 07:12:00,9.0,6.0,-100.00,North,-999,0.0,0.0,87,-99.99,,,0.00,,2013-03-24 13:12:00,
2013-03-24 07:22:00,9.0,6.0,-100.00,North,-999,0.0,0.0,87,-99.99,,,0.00,,2013-03-24 13:22:00,
2013-03-24 07:52:00,7.0,4.0,-100.00,North,-999,0.0,0.0,87,-99.99,,,0.00,,2013-03-24 13:52:00,
2013-03-24 08:02:00,7.0,4.0,-100.00,North,-999,0.0,0.0,87,-99.99,,,0.00,,2013-03-24 14:02:00,
2013-03-24 08:12:00,7.0,4.0,-100.00,North,-999,0.0,0.0,87,-99.99,,,0.00,,2013-03-24 14:12:00,
2013-03-24 08:22:00,7.0,4.0,-100.00,North,-999,0.0,0.0,87,-99.99,,,0.00,,2013-03-24 14:22:00,
2013-03-24 08:52:00,12.0,8.0,-100.00,North,-999,0.0,0.0,85,-99.99,,,0.00,,2013-03-24 14:52:00,
2013-03-24 09:02:00,12.0,8.0,-100.00,North,-999,0.0,0.0,85,-99.99,,,0.00,,2013-03-24 15:02:00,
2013-03-24 09:12:00,12.0,8.0,-100.00,North,-999,0.0,0.0,85,-99.99,,,0.00,,2013-03-24 15:12:00,
2013-03-24 09:22:00,12.0,8.0,-100.00,North,-999,0.0,0.0,85,-99.99,,,0.00,,2013-03-24 15:22:00,
2013-03-24 09:53:00,19.0,13.0,-100.00,SE,135,3.0,4.0,77,-99.99,,,0.00,,2013-03-24 15:53:00,
2013-03-24 10:02:00,19.0,13.0,-100.00,SE,135,3.0,4.0,77,-99.99,,,0.00,,2013-03-24 16:02:00,
2013-03-24 10:12:00,19.0,13.0,-100.00,SE,135,3.0,4.0,77,-99.99,,,0.00,,2013-03-24 16:12:00,
2013-03-24 10:22:00,19.0,13.0,-100.00,SE,135,3.0,4.0,77,-99.99,,,0.00,,2013-03-24 16:22:00,
2013-03-24 10:52:00,24.0,13.0,-100.00,SSE,155,4.0,5.0,63,-99.99,,,0.00,,2013-03-24 16:52:00,
2013-03-24 11:02:00,24.0,13.0,-100.00,SSE,155,4.0,5.0,63,-99.99,,,0.00,,2013-03-24 17:02:00,
2013-03-24 11:12:00,24.0,13.0,-100.00,SSE,155,4.0,5.0,63,-99.99,,,0.00,,2013-03-24 17:12:00,
2013-03-24 11:22:00,24.0,13.0,-100.00,SSE,155,4.0,5.0,63,-99.99,,,0.00,,2013-03-24 17:22:00,
2013-03-24 11:53:00,28.0,12.0,-100.00,SE,125,5.0,6.0,49,-99.99,,,0.00,,2013-03-24 17:53:00,
2013-03-24 12:02:00,28.0,12.0,-100.00,SE,125,5.0,6.0,49,-99.99,,,0.00,,2013-03-24 18:02:00,
2013-03-24 12:12:00,28.0,12.0,-100.00,SE,125,5.0,6.0,49,-99.99,,,0.00,,2013-03-24 18:12:00,
2013-03-24 12:52:00,32.0,9.0,-100.00,SSE,165,1.0,3.0,37,-99.99,,,-99.99,,2013-03-24 18:52:00,
2013-03-24 13:02:00,32.0,9.0,-100.00,SSE,165,1.0,3.0,37,-99.99,,,-99.99,,2013-03-24 19:02:00,
2013-03-24 13:12:00,32.0,9.0,-100.00,SSE,165,1.0,3.0,37,-99.99,,,-99.99,,2013-03-24 19:12:00,
2013-03-24 13:22:00,32.0,9.0,-100.00,SSE,165,1.0,3.0,37,-99.99,,,-99.99,,2013-03-24 19:22:00,
2013-03-24 13:53:00,36.0,5.0,-100.00,SE,125,1.0,3.0,27,-99.99,,,0.00,,2013-03-24 19:53:00,
2013-03-24 14:02:00,36.0,5.0,-100.00,SE,125,1.0,3.0,27,-99.99,,,0.00,,2013-03-24 20:02:00,
2013-03-24 14:12:00,36.0,5.0,-100.00,SE,125,1.0,3.0,27,-99.99,,,0.00,,2013-03-24 20:12:00,
2013-03-24 14:22:00,36.0,5.0,-100.00,SE,125,1.0,3.0,27,-99.99,,,0.00,,2013-03-24 20:22:00,
2013-03-24 14:53:00,36.0,2.0,-100.00,SSW,195,6.0,9.0,23,-99.99,,,0.00,,2013-03-24 20:53:00,
2013-03-24 15:02:00,36.0,2.0,-100.00,SSW,195,6.0,9.0,23,-99.99,,,0.00,,2013-03-24 21:02:00,
2013-03-24 15:11:00,36.0,2.0,-100.00,SSW,195,6.0,9.0,23,-99.99,,,0.00,,2013-03-24 21:11:00,
2013-03-24 15:22:00,36.0,2.0,-100.00,SSW,195,6.0,9.0,23,-99.99,,,0.00,,2013-03-24 21:22:00,
2013-03-24 15:53:00,35.0,0.0,-100.00,SW,230,6.0,7.0,22,-99.99,,,0.00,,2013-03-24 21:53:00,
2013-03-24 16:02:00,35.0,0.0,-100.00,SW,230,6.0,7.0,22,-99.99,,,0.00,,2013-03-24 22:02:00,
2013-03-24 16:12:00,35.0,0.0,-100.00,SW,230,6.0,7.0,22,-99.99,,,0.00,,2013-03-24 22:12:00,
2013-03-24 16:22:00,35.0,0.0,-100.00,SW,230,6.0,7.0,22,-99.99,,,0.00,,2013-03-24 22:22:00,
2013-03-24 16:52:00,38.0,2.0,-100.00,South,190,4.0,5.0,21,-99.99,,,0.00,,2013-03-24 22:52:00,
2013-03-24 17:02:00,38.0,2.0,-100.00,South,190,4.0,5.0,21,-99.99,,,0.00,,2013-03-24 23:02:00,
2013-03-24 17:12:00,38.0,2.0,-100.00,South,190,4.0,5.0,21,-99.99,,,0.00,,2013-03-24 23:12:00,
2013-03-24 17:22:00,38.0,2.0,-100.00,South,190,4.0,5.0,21,-99.99,,,0.00,,2013-03-24 23:22:00,
2013-03-24 17:52:00,37.0,1.0,-100.00,ENE,70,3.0,3.0,21,-99.99,,,0.00,,2013-03-24 23:52:00,
2013-03-24 18:02:00,37.0,1.0,-100.00,ENE,70,3.0,3.0,21,-99.99,,,0.00,,2013-03-25 00:02:00,
2013-03-24 18:12:00,37.0,1.0,-100.00,ENE,70,3.0,3.0,21,-99.99,,,0.00,,2013-03-25 00:12:00,
2013-03-24 18:22:00,37.0,1.0,-100.00,ENE,70,3.0,3.0,21,-99.99,,,0.00,,2013-03-25 00:22:00,
2013-03-24 18:53:00,36.0,1.0,-100.00,ENE,65,6.0,7.0,22,-99.99,,,0.00,,2013-03-25 00:53:00,
2013-03-24 19:02:00,36.0,1.0,-100.00,ENE,65,6.0,7.0,22,-99.99,,,0.00,,2013-03-25 01:02:00,
2013-03-24 19:12:00,36.0,1.0,-100.00,ENE,65,6.0,7.0,22,-99.99,,,0.00,,2013-03-25 01:12:00,
2013-03-24 19:22:00,36.0,1.0,-100.00,ENE,65,6.0,7.0,22,-99.99,,,0.00,,2013-03-25 01:22:00,
2013-03-24 19:52:00,33.0,0.0,-100.00,SSE,165,7.0,8.0,24,-99.99,,,0.00,,2013-03-25 01:52:00,
2013-03-24 20:02:00,33.0,0.0,-100.00,SSE,165,7.0,8.0,24,-99.99,,,0.00,,2013-03-25 02:02:00,
2013-03-24 20:12:00,33.0,0.0,-100.00,SSE,165,7.0,8.0,24,-99.99,,,0.00,,2013-03-25 02:12:00,
2013-03-24 20:22:00,33.0,0.0,-100.00,SSE,165,7.0,8.0,24,-99.99,,,0.00,,2013-03-25 02:22:00,
2013-03-24 20:52:00,24.0,0.0,-100.00,SE,145,8.0,8.0,34,-99.99,,,0.00,,2013-03-25 02:52:00,
2013-03-24 21:02:00,24.0,0.0,-100.00,SE,145,8.0,8.0,34,-99.99,,,0.00,,2013-03-25 03:02:00,
2013-03-24 21:12:00,24.0,0.0,-100.00,SE,145,8.0,8.0,34,-99.99,,,0.00,,2013-03-25 03:12:00,
2013-03-24 21:22:00,24.0,0.0,-100.00,SE,145,8.0,8.0,34,-99.99,,,0.00,,2013-03-25 03:22:00,
2013-03-24 21:53:00,23.0,2.0,-100.00,South,170,11.0,11.0,40,-99.99,,,0.00,,2013-03-25 03:53:00,
2013-03-24 22:02:00,23.0,2.0,-100.00,South,170,11.0,11.0,40,-99.99,,,0.00,,2013-03-25 04:02:00,
2013-03-24 22:12:00,23.0,2.0,-100.00,South,170,11.0,11.0,40,-99.99,,,0.00,,2013-03-25 04:12:00,
2013-03-24 22:22:00,23.0,2.0,-100.00,South,170,11.0,11.0,40,-99.99,,,0.00,,2013-03-25 04:22:00,
2013-03-24 22:52:00,23.0,3.0,-100.00,WSW,245,1.0,2.0,42,-99.99,,,0.00,,2013-03-25 04:52:00,
2013-03-24 23:02:00,23.0,3.0,-100.00,WSW,245,1.0,2.0,42,-99.99,,,0.00,,2013-03-25 05:02:00,
2013-03-24 23:12:00,23.0,3.0,-100.00,WSW,245,1.0,2.0,42,-99.99,,,0.00,,2013-03-25 05:12:00,
2013-03-24 23:22:00,23.0,3.0,-100.00,WSW,245,1.0,2.0,42,-99.99,,,0.00,,2013-03-25 05:22:00,
2013-03-24 23:52:00,22.0,3.0,-100.00,SSE,150,3.0,4.0,44,-99.99,,,0.00,,2013-03-25 05:52:00,